GW6917 Weather Reports


time (UTC)temp
C
wind
direction
speed
KPH
gust
KPH
rain 1hr
cm
rain 24hr
cm
rain mn
cm
humidity
%
barometer
mb
20260506124544 13 335 3.2 12.9 0.00 0.18 0.00 53 1016.3
20260506124034 13 211 3.2 12.9 0.00 0.18 0.00 54 1016.1
20260506123533 13 40 3.2 12.9 0.00 0.18 0.00 51 1016.3
20260506123044 13 30 3.2 11.3 0.00 0.18 0.00 51 1016.2
20260506122533 13 276 3.2 11.3 0.00 0.18 0.00 55 1016.2
20260506122033 13 193 3.2 11.3 0.00 0.18 0.00 51 1016.3
20260506121543 13 152 4.8 12.9 0.00 0.18 0.00 56 1016.2
20260506121033 12 105 3.2 12.9 0.00 0.18 0.00 54 1016.4
20260506120534 12 98 3.2 11.3 0.00 0.18 0.00 56 1016.3
20260506120043 12 117 3.2 11.3 0.00 0.18 0.00 55 1016.4
20260506115535 12 193 1.6 9.7 0.00 0.28 0.00 56 1016.5
20260506115033 12 127 3.2 9.7 0.00 0.28 0.00 57 1016.5
20260506114546 12 79 3.2 9.7 0.00 0.28 0.00 55 1016.5
20260506114034 12 68 1.6 11.3 0.00 0.28 0.00 53 1016.5
20260506113534 12 152 3.2 12.9 0.00 0.28 0.00 52 1016.6
20260506113042 12 336 4.8 12.9 0.00 0.28 0.00 54 1016.6
20260506112533 12 102 4.8 12.9 0.00 0.28 0.00 57 1016.7
20260506112033 12 82 3.2 11.3 0.00 0.28 0.00 59 1016.7
20260506111544 11 46 3.2 12.9 0.00 0.28 0.00 53 1016.6
20260506111033 12 0 4.8 12.9 0.00 0.28 0.00 53 1016.8
20260506110534 12 46 3.2 14.5 0.00 0.28 0.00 55 1016.8
20260506110056 12 21 3.2 14.5 0.00 0.28 0.00 56 1016.8
20260506105534 12 33 3.2 14.5 0.00 0.28 0.00 56 1016.8
20260506105034 12 35 3.2 14.5 0.00 0.28 0.00 60 1016.9
20260506104553 11 349 1.6 12.9 0.00 0.28 0.00 60 1016.9
20260506104033 11 89 4.8 12.9 0.00 0.28 0.00 58 1016.8
20260506103533 11 70 6.4 12.9 0.00 0.28 0.00 55 1017.0
20260506103049 11 89 1.6 12.9 0.00 0.28 0.00 56 1017.0
20260506102535 11 105 3.2 12.9 0.00 0.28 0.00 58 1017.0
20260506102034 11 103 3.2 9.7 0.00 0.28 0.00 56 1017.0
20260506101553 11 39 3.2 12.9 0.00 0.28 0.00 57 1016.9
20260506101033 11 335 3.2 12.9 0.00 0.28 0.00 56 1017.0
20260506100533 11 28 4.8 12.9 0.00 0.28 0.00 56 1017.2
20260506100042 11 324 3.2 9.7 0.00 0.28 0.00 57 1017.0
20260506095536 11 105 3.2 16.1 0.00 0.33 0.00 57 1017.1
20260506095034 11 72 4.8 16.1 0.00 0.33 0.00 57 1017.2
20260506094552 11 83 1.6 14.5 0.00 0.33 0.00 57 1017.2
20260506094035 11 156 4.8 16.1 0.00 0.33 0.00 56 1017.3
20260506093535 11 89 4.8 16.1 0.00 0.33 0.00 57 1017.3
20260506093047 11 354 3.2 12.9 0.00 0.33 0.00 59 1017.3
20260506092535 11 124 1.6 12.9 0.00 0.33 0.00 60 1017.5
20260506092034 11 28 6.4 12.9 0.00 0.33 0.00 58 1017.4
20260506091549 10 46 1.6 12.9 0.00 0.33 0.00 61 1017.4
20260506091036 10 56 3.2 12.9 0.00 0.33 0.00 58 1017.5
20260506090533 10 9 4.8 12.9 0.00 0.33 0.00 59 1017.4
20260506090047 11 324 3.2 14.5 0.00 0.33 0.00 60 1017.4
20260506085534 10 74 3.2 14.5 0.00 0.33 0.00 60 1017.5
20260506085034 10 46 3.2 14.5 0.00 0.33 0.00 63 1017.4
20260506084549 10 53 3.2 11.3 0.00 0.33 0.00 62 1017.5
20260506084034 10 336 3.2 12.9 0.00 0.33 0.00 64 1017.5
20260506083534 10 131 3.2 12.9 0.00 0.33 0.00 63 1017.7
20260506083045 10 51 4.8 11.3 0.00 0.33 0.00 64 1017.7
20260506082537 10 342 4.8 14.5 0.00 0.33 0.00 65 1017.7
20260506082033 9 70 4.8 14.5 0.00 0.33 0.00 67 1017.7
20260506081541 9 347 3.2 14.5 0.00 0.33 0.00 67 1017.6
20260506081034 8 135 1.6 14.5 0.00 0.33 0.00 68 1017.5
20260506080534 8 63 3.2 9.7 0.00 0.33 0.00 71 1017.6
20260506073049 6 84 1.6 6.4 0.00 0.33 0.00 78 1017.8
20260506072533 6 135 1.6 6.4 0.00 0.33 0.00 78 1017.8
20260506072033 6 89 1.6 6.4 0.00 0.33 0.00 79 1017.8
20260506071600 6 51 1.6 8.0 0.00 0.33 0.00 79 1017.8
20260506071034 5 0 1.6 8.0 0.00 0.33 0.00 81 1017.8
20260506070534 5 32 1.6 8.0 0.00 0.33 0.00 82 1017.9
20260506062033 3 23 3.2 6.4 0.00 0.33 0.00 87 1017.7
20260506061548 3 32 1.6 4.8 0.00 0.33 0.00 87 1017.7
20260506061034 3 35 1.6 4.8 0.00 0.33 0.00 87 1017.6
20260506060536 3 72 1.6 4.8 0.00 0.33 0.00 87 1017.5
20260506051033 3 145 0.0 3.2 0.00 0.33 0.00 87 1017.6
20260506050534 3 0 0.0 3.2 0.00 0.33 0.00 86 1017.7
20260506045035 3 0 0.0 3.2 0.00 0.33 0.00 86 1017.5
20260506044553 3 28 0.0 3.2 0.00 0.33 0.00 86 1017.5
20260506044033 3 35 0.0 3.2 0.00 0.33 0.00 86 1017.5
20260506043536 3 15 0.0 3.2 0.00 0.33 0.00 86 1017.4
20260506043047 3 68 1.6 3.2 0.00 0.33 0.00 86 1017.4
20260506042533 3 56 0.0 3.2 0.00 0.33 0.00 86 1017.6
20260506042036 3 46 0.0 3.2 0.00 0.33 0.00 86 1017.6
20260506041559 3 0 0.0 1.6 0.00 0.33 0.00 87 1017.5
20260506041036 3 0 0.0 3.2 0.00 0.33 0.00 86 1017.6
20260506040536 3 56 0.0 3.2 0.00 0.33 0.00 86 1017.6
20260506040048 3 56 0.0 3.2 0.00 0.33 0.00 87 1017.5
20260506035536 3 76 0.0 1.6 0.00 0.33 0.00 86 1017.5
20260506035038 3 56 0.0 1.6 0.00 0.33 0.00 86 1017.6
20260506034545 3 0 0.0 1.6 0.00 0.33 0.00 86 1017.6
20260506034033 3 0 0.0 3.2 0.00 0.33 0.00 86 1017.6
20260506033537 3 0 0.0 3.2 0.00 0.33 0.00 86 1017.6
20260506033051 3 0 0.0 3.2 0.00 0.33 0.00 86 1017.7
20260506032533 3 46 0.0 3.2 0.00 0.33 0.00 86 1017.6
20260506032033 3 76 0.0 4.8 0.00 0.33 0.00 86 1017.7
20260506031547 3 56 1.6 4.8 0.00 0.33 0.00 86 1017.7
20260506031035 3 63 1.6 4.8 0.00 0.33 0.00 86 1017.8
20260506030535 3 76 0.0 3.2 0.00 0.33 0.00 86 1017.7
20260506030048 3 0 0.0 3.2 0.00 0.33 0.00 86 1017.8
20260506025535 3 0 0.0 3.2 0.00 0.33 0.00 86 1017.7
20260506025033 3 0 0.0 3.2 0.00 0.33 0.00 86 1017.8
20260506024553 3 0 0.0 3.2 0.00 0.33 0.00 86 1017.7
20260506024033 3 0 0.0 3.2 0.00 0.33 0.00 86 1017.8
20260506023533 3 46 0.0 3.2 0.00 0.33 0.00 86 1017.7
20260506023053 3 35 0.0 3.2 0.00 0.33 0.00 87 1017.8
20260506022535 4 63 0.0 3.2 0.00 0.33 0.00 87 1017.8
20260506022034 4 0 0.0 3.2 0.00 0.33 0.00 87 1017.6
20260506021554 4 20 0.0 3.2 0.00 0.33 0.00 87 1017.8
20260506021033 4 56 0.0 3.2 0.00 0.33 0.00 87 1017.7
20260506020533 4 63 0.0 3.2 0.00 0.33 0.00 87 1017.7
20260506020048 4 56 1.6 3.2 0.00 0.33 0.00 87 1017.7
20260506015533 4 53 1.6 4.8 0.00 0.33 0.00 87 1017.8
20260506015037 4 46 1.6 4.8 0.00 0.33 0.00 87 1017.9
20260506014552 4 49 1.6 3.2 0.00 0.33 0.00 87 1017.8
20260506014035 4 46 1.6 3.2 0.00 0.33 0.00 87 1017.8
20260506013534 4 53 1.6 3.2 0.00 0.33 0.00 87 1017.8
20260506013048 4 46 0.0 3.2 0.00 0.33 0.00 87 1017.8
20260506012533 4 39 0.0 3.2 0.00 0.33 0.00 87 1017.9
20260506012035 4 0 0.0 1.6 0.00 0.33 0.00 87 1017.8
20260506011547 4 46 0.0 4.8 0.00 0.33 0.00 87 1018.0
20260506011033 4 0 0.0 4.8 0.00 0.33 0.00 87 1017.8
20260506010537 4 51 1.6 4.8 0.00 0.33 0.00 87 1017.7
20260506010054 4 39 0.0 3.2 0.00 0.33 0.00 87 1017.8
20260506005537 4 46 0.0 3.2 0.00 0.33 0.00 86 1017.9
20260506005033 4 46 0.0 3.2 0.00 0.33 0.00 86 1017.9
20260506004556 4 28 0.0 3.2 0.00 0.33 0.00 86 1017.9
20260506004033 4 0 0.0 3.2 0.00 0.33 0.00 86 1018.0
20260506003533 4 0 1.6 3.2 0.00 0.33 0.00 86 1017.9
20260506003041 4 46 1.6 3.2 0.00 0.33 0.00 85 1017.9
20260506002535 3 46 0.0 1.6 0.00 0.33 0.00 85 1017.9
20260506002033 3 0 0.0 1.6 0.00 0.33 0.00 85 1018.0
20260506001607 3 0 0.0 1.6 0.00 0.33 0.00 85 1017.9
20260506001033 3 0 0.0 1.6 0.00 0.33 0.00 84 1018.0
20260506000535 3 0 0.0 1.6 0.00 0.33 0.00 85 1017.9
20260506000049 3 178 0.0 1.6 0.00 0.33 0.00 84 1017.8
20260505235534 3 35 0.0 3.2 0.00 0.33 0.00 84 1018.0
20260505235033 3 0 0.0 3.2 0.00 0.33 0.00 84 1017.9
20260505234550 4 124 0.0 3.2 0.00 0.33 0.00 84 1018.0
20260505234033 4 35 0.0 3.2 0.00 0.33 0.00 84 1018.0
20260505233532 4 108 0.0 3.2 0.00 0.33 0.00 83 1018.0
20260505233047 4 0 0.0 3.2 0.00 0.33 0.00 83 1018.0
20260505232533 4 0 1.6 3.2 0.00 0.33 0.00 83 1018.2
20260505232034 4 76 0.0 3.2 0.00 0.33 0.00 83 1018.2
20260505231550 4 46 0.0 3.2 0.00 0.33 0.00 82 1018.2
20260505231035 4 63 0.0 3.2 0.00 0.33 0.00 82 1018.2
20260505230533 4 46 0.0 3.2 0.00 0.33 0.00 82 1018.2
20260505230044 4 53 0.0 3.2 0.00 0.33 0.00 81 1018.1
20260505225537 4 40 1.6 3.2 0.00 0.33 0.33 81 1018.2
20260505225034 4 53 1.6 3.2 0.00 0.33 0.33 81 1018.2
20260505224543 4 76 0.0 4.8 0.00 0.33 0.33 81 1018.2
20260505224033 5 0 0.0 4.8 0.00 0.33 0.33 81 1018.2
20260505223533 5 72 0.0 4.8 0.00 0.33 0.33 80 1018.2
20260505223055 5 68 0.0 4.8 0.00 0.33 0.33 80 1018.2
20260505222534 5 89 0.0 6.4 0.00 0.33 0.33 80 1018.2
20260505222033 5 28 1.6 6.4 0.00 0.33 0.33 80 1018.2
20260505221552 5 46 1.6 6.4 0.00 0.33 0.33 80 1018.1
20260505221035 5 23 1.6 12.9 0.00 0.33 0.33 80 1018.2
20260505220532 5 77 3.2 12.9 0.00 0.33 0.33 80 1018.0
20260505220044 5 28 1.6 9.7 0.00 0.33 0.33 80 1018.1
20260505215534 5 53 3.2 9.7 0.00 0.33 0.33 80 1018.1
20260505215033 5 56 3.2 9.7 0.00 0.33 0.33 80 1018.2
20260505214600 5 46 1.6 6.4 0.00 0.33 0.33 80 1018.1
20260505214033 5 82 0.0 8.0 0.00 0.33 0.33 80 1018.0
20260505213533 5 33 1.6 11.3 0.00 0.33 0.33 79 1018.0
20260505213055 6 100 4.8 11.3 0.00 0.33 0.33 79 1017.9
20260505212533 6 161 1.6 11.3 0.00 0.33 0.33 79 1017.9
20260505212033 6 89 3.2 12.9 0.00 0.33 0.33 79 1017.9
20260505211545 6 35 3.2 12.9 0.00 0.33 0.33 79 1017.9
20260505211033 6 70 1.6 4.8 0.00 0.33 0.33 78 1017.9
20260505210534 6 59 1.6 8.0 0.00 0.33 0.33 78 1017.8
20260505210052 6 0 3.2 11.3 0.00 0.33 0.33 78 1017.8
20260505205535 6 65 1.6 12.9 0.00 0.33 0.33 78 1017.9
20260505205036 6 49 3.2 12.9 0.00 0.33 0.33 78 1017.8
20260505204545 6 46 3.2 11.3 0.00 0.33 0.33 78 1017.9
20260505204033 6 63 3.2 9.7 0.00 0.33 0.33 78 1017.9
20260505203533 6 65 3.2 9.7 0.00 0.33 0.33 78 1017.8
20260505203051 6 174 1.6 12.9 0.00 0.33 0.33 78 1017.8
20260505202533 6 150 4.8 16.1 0.00 0.33 0.33 78 1017.9
20260505202036 6 347 3.2 16.1 0.00 0.33 0.33 78 1017.8
20260505201554 6 63 3.2 16.1 0.00 0.33 0.33 78 1017.7
20260505201033 6 101 4.8 16.1 0.00 0.33 0.33 78 1017.8
20260505200533 6 75 4.8 16.1 0.00 0.33 0.33 78 1017.7
20260505200046 6 42 4.8 14.5 0.00 0.33 0.33 78 1017.7
20260505195533 7 41 3.2 11.3 0.00 0.33 0.33 77 1017.5
20260505195035 7 13 3.2 11.3 0.00 0.33 0.33 77 1017.5
20260505194543 7 23 3.2 12.9 0.00 0.33 0.33 77 1017.6
20260505194034 7 52 4.8 12.9 0.00 0.33 0.33 76 1017.6
20260505193535 7 72 4.8 20.9 0.00 0.33 0.33 76 1017.4
20260505193048 7 65 6.4 20.9 0.00 0.33 0.33 76 1017.4
20260505192532 7 27 4.8 17.7 0.00 0.33 0.33 77 1017.4
20260505192032 7 67 3.2 12.9 0.00 0.33 0.33 77 1017.5
20260505191552 7 65 4.8 12.9 0.00 0.33 0.33 77 1017.4
20260505191033 7 95 3.2 12.9 0.00 0.33 0.33 76 1017.4
20260505190533 7 49 4.8 12.9 0.00 0.33 0.33 76 1017.2
20260505190104 7 223 1.6 9.7 0.00 0.33 0.33 76 1017.3
20260505185535 7 54 3.2 11.3 0.00 0.33 0.33 75 1017.2
20260505185033 7 49 4.8 11.3 0.00 0.33 0.33 75 1017.3
20260505184601 7 96 4.8 14.5 0.00 0.33 0.33 75 1017.4
20260505184033 7 96 4.8 14.5 0.00 0.33 0.33 75 1017.2
20260505183537 7 76 4.8 17.7 0.00 0.33 0.33 74 1017.4
20260505183056 7 13 8.0 17.7 0.00 0.33 0.33 75 1017.3
20260505182536 8 47 6.4 19.3 0.00 0.33 0.33 75 1017.3
20260505182035 8 51 8.0 19.3 0.00 0.33 0.33 74 1017.3
20260505181553 8 89 4.8 16.1 0.00 0.33 0.33 74 1017.1
20260505181036 8 66 6.4 16.1 0.00 0.33 0.33 74 1017.1
20260505180535 8 65 3.2 14.5 0.00 0.33 0.33 74 1017.1
20260505180056 8 20 4.8 14.5 0.00 0.33 0.33 73 1017.1
20260505175534 8 74 6.4 16.1 0.00 0.33 0.33 73 1017.1
20260505175034 8 137 3.2 16.1 0.00 0.33 0.33 73 1017.3
20260505174550 8 39 6.4 17.7 0.00 0.33 0.33 73 1017.2
20260505174033 8 77 6.4 17.7 0.00 0.33 0.33 73 1017.2
20260505173534 8 56 6.4 16.1 0.00 0.33 0.33 73 1017.0
20260505173049 8 342 6.4 16.1 0.00 0.33 0.33 73 1017.2
20260505172534 8 32 3.2 17.7 0.00 0.33 0.33 73 1017.1
20260505172033 8 103 4.8 17.7 0.00 0.33 0.33 73 1017.0
20260505171548 8 1 4.8 17.7 0.00 0.33 0.33 73 1016.9
20260505171033 8 39 4.8 17.7 0.00 0.33 0.33 72 1017.0
20260505170533 8 49 4.8 17.7 0.00 0.33 0.33 72 1017.1
20260505170054 8 42 6.4 20.9 0.00 0.33 0.33 73 1017.1
20260505165534 8 314 6.4 20.9 0.00 0.33 0.33 73 1017.0
20260505165034 8 95 6.4 19.3 0.00 0.33 0.33 75 1017.0
20260505164547 8 49 4.8 14.5 0.00 0.33 0.33 75 1016.9
20260505164034 8 105 4.8 14.5 0.00 0.33 0.33 75 1017.0
20260505163533 8 53 4.8 16.1 0.00 0.33 0.33 75 1017.0
20260505163055 8 52 6.4 16.1 0.00 0.33 0.33 75 1017.0
20260505162533 8 130 6.4 17.7 0.00 0.33 0.33 75 1016.9
20260505162033 8 72 9.7 17.7 0.00 0.33 0.33 75 1016.8
20260505161555 9 113 4.8 20.9 0.00 0.33 0.33 76 1016.8
20260505161034 9 49 4.8 20.9 0.00 0.33 0.33 77 1016.7
20260505160536 9 37 4.8 12.9 0.00 0.33 0.33 76 1016.6
20260505153052 9 161 6.4 17.7 0.00 0.33 0.33 79 1016.3
20260505152532 9 13 3.2 9.7 0.00 0.33 0.33 78 1016.4
20260505152033 9 65 3.2 19.3 0.00 0.33 0.33 78 1016.4
20260505151542 9 44 6.4 22.5 0.00 0.33 0.33 78 1016.4
20260505151034 9 83 8.0 22.5 0.00 0.33 0.33 79 1016.3
20260505150536 9 89 4.8 16.1 0.00 0.33 0.33 79 1016.4
20260505150107 10 32 4.8 14.5 0.05 0.33 0.33 79 1016.2
20260505140534 11 93 4.8 20.9 0.08 0.28 0.28 78 1016.2
20260505125033 11 305 1.6 8.0 0.03 0.18 0.18 77 1016.0